Chicopee, MA

6:06 AM EDT on May 27, 2017 (GMT -0400)
Westover Air Reserve Base / Metropolitan Airport

Weather History for KCEF - February, 2014

Change the Weather History Date:

Saturday, February 15, 2014

  Actual Average Record
Temperature  
Mean Temperature 22 °F -  
Max Temperature 32 °F 35 °F 53 °F (2006)
Min Temperature 13 °F 18 °F -14 °F (2016)
Degree Days  
Heating Degree Days 42    
Moisture  
Dew Point 25 °F    
Average Humidity 96    
Maximum Humidity 100    
Minimum Humidity 74    
Precipitation  
Precipitation 0.01 in - - ()
Snow  
Snow 0.00 in - - ()
Snow Depth 16.00 in    
Sea Level Pressure  
Sea Level Pressure 29.72 in    
Wind  
Wind Speed 6 mph (NNE)    
Max Wind Speed 21 mph    
Max Gust Speed 26 mph    
Visibility 5 miles    
Events Fog , Snow    
Averages and records for this station are not official NWS values.
T = Trace of Precipitation, MM = Missing Value Source: NWS Daily Summary

Daily Weather History Graph

Daily Weather History Graph

Search for Another Location

Airport or City:

Trip Planner

Search our weather history database for the weather conditions in past years. The results will help you decide how hot, cold, wet, or windy it might be!

Date:

Astronomy

Feb. 15, 2014 Rise Set
Actual Time 6:46 AM EST 5:22 PM EST
Civil Twilight 6:17 AM EST 5:51 PM EST
Nautical Twilight 5:44 AM EST 6:24 PM EST
Astronomical Twilight 5:12 AM EST 6:56 PM EST
Moon 6:21 PM EST (2/15) 6:42 AM EST (2/15)
Length of Visible Light 11h 33m
Length of Day
10h 36m
Full, 100% of the Moon is Illuminated
Feb 15
Full
Feb 22
Last Quarter
Mar 1
New
Mar 8
First Quarter
Mar 16
Full

Hourly Weather History & Observations

Time (EST) Temp. Windchill Dew Point Humidity Pressure Visibility Wind Dir Wind Speed Gust Speed Precip Events Conditions
12:58 AM 18.9 °F 13.7 °F 18.1 °F 97% 29.78 in 10.0 mi ENE 3.5 mph - N/A   Clear
1:58 AM 19.0 °F 12.3 °F 18.5 °F 98% 29.78 in 10.0 mi South 4.6 mph - N/A   Clear
2:40 AM 15.8 °F - 15.8 °F 100% 29.79 in 2.5 mi North 2.3 mph - N/A   Scattered Clouds
2:41 AM 15.8 °F - 15.8 °F 100% 29.79 in 2.0 mi NNE 2.3 mph - N/A   Scattered Clouds
2:42 AM 15.8 °F - 15.8 °F 100% 29.79 in 1.8 mi NNE 2.3 mph - N/A   Scattered Clouds
2:49 AM 15.8 °F 8.6 °F 14.0 °F 93% 29.78 in 2.0 mi NE 4.6 mph - N/A   Scattered Clouds
2:50 AM 15.8 °F 8.6 °F 14.0 °F 93% 29.77 in 3.0 mi NE 4.6 mph - N/A   Scattered Clouds
2:58 AM 14.4 °F 5.5 °F 13.8 °F 98% 29.76 in 10.0 mi ENE 5.8 mph - N/A   Mostly Cloudy
3:58 AM 17.6 °F - 17.2 °F 98% 29.78 in 10.0 mi Variable 2.3 mph - N/A   Scattered Clouds
4:58 AM 13.5 °F - 13.1 °F 98% 29.79 in 10.0 mi ENE 2.3 mph - N/A   Mostly Cloudy
5:58 AM 16.3 °F - 16.0 °F 98% 29.79 in 10.0 mi SSE 1.2 mph - N/A   Scattered Clouds
6:58 AM 15.6 °F 10.0 °F 15.1 °F 98% 29.81 in 10.0 mi NNE 3.5 mph - N/A   Overcast
7:58 AM 19.2 °F - 18.7 °F 98% 29.82 in 10.0 mi SSW 2.3 mph - N/A   Overcast
8:58 AM 23.2 °F - 22.6 °F 98% 29.82 in 10.0 mi North 2.3 mph - N/A   Overcast
9:58 AM 25.9 °F 21.7 °F 24.8 °F 96% 29.84 in 10.0 mi NE 3.5 mph - N/A   Overcast
10:15 AM 26.6 °F - 24.8 °F 93% 29.82 in 10.0 mi NNE 2.3 mph - N/A Snow Light Snow
10:48 AM 28.4 °F 23.3 °F 26.6 °F 93% 29.80 in 0.8 mi NNE 4.6 mph - N/A Snow Light Snow
10:51 AM 28.4 °F 22.2 °F 26.6 °F 93% 29.80 in 0.5 mi NNE 5.8 mph - N/A Fog , Snow Light Snow
10:58 AM 28.4 °F 23.3 °F 27.3 °F 96% 29.84 in 0.5 mi NNE 4.6 mph - 0.00 in Fog , Snow Light Snow
11:14 AM 28.4 °F 22.2 °F 28.4 °F 100% 29.81 in 1.0 mi North 5.8 mph - N/A Snow Light Snow
11:43 AM 30.2 °F 23.4 °F 28.4 °F 93% 29.78 in 3.0 mi NE 6.9 mph - N/A Snow Light Snow
11:58 AM 29.7 °F 22.8 °F 29.1 °F 98% 29.80 in 5.0 mi NE 6.9 mph - 0.00 in   Overcast
12:08 PM 30.2 °F 21.3 °F 30.2 °F 100% 29.76 in 2.0 mi NE 10.4 mph - N/A Snow Light Snow
12:49 PM 30.2 °F 21.3 °F 30.2 °F 100% 29.72 in 2.5 mi NE 10.4 mph - N/A   Overcast
12:58 PM 30.4 °F 22.9 °F 29.8 °F 98% 29.75 in 4.0 mi NNE 8.1 mph - N/A   Overcast
1:15 PM 32.0 °F 24.8 °F 30.2 °F 93% 29.72 in 2.0 mi NNE 8.1 mph - N/A Snow Light Snow
1:24 PM 30.2 °F 21.9 °F 30.2 °F 100% 29.72 in 0.8 mi NNE 9.2 mph - N/A Snow Light Snow
1:58 PM 29.7 °F 21.3 °F 29.1 °F 98% 29.73 in 0.8 mi NNE 9.2 mph - 0.00 in Snow Light Snow
2:52 PM 30.2 °F 21.3 °F 30.2 °F 100% 29.66 in 1.2 mi NNE 10.4 mph - N/A Snow Light Snow
2:58 PM 30.2 °F 21.3 °F 29.7 °F 98% 29.70 in 1.2 mi NNE 10.4 mph - 0.01 in Snow Light Snow
3:53 PM 32.0 °F 24.2 °F 30.2 °F 93% 29.67 in 2.0 mi North 9.2 mph - N/A Snow Light Snow
3:58 PM 32.0 °F 24.2 °F 30.2 °F 93% 29.70 in 2.0 mi North 9.2 mph - N/A Snow Light Snow
4:17 PM 32.0 °F 24.2 °F 32.0 °F 100% 29.66 in 3.0 mi North 9.2 mph - N/A Snow Light Snow
4:28 PM 32.0 °F 24.2 °F 32.0 °F 100% 29.66 in 1.2 mi NNE 9.2 mph - N/A Snow Light Snow
4:31 PM 32.0 °F 23.6 °F 30.2 °F 93% 29.66 in 1.2 mi North 10.4 mph - N/A Snow Light Snow
4:58 PM 30.2 °F 21.9 °F 30.0 °F 99% 29.65 in 1.2 mi NNE 9.2 mph - N/A Snow Light Snow
5:58 PM 30.0 °F 20.0 °F 29.8 °F 99% 29.67 in 1.2 mi NNE 12.7 mph - N/A Snow Light Snow
6:37 PM 30.2 °F 21.3 °F 30.2 °F 100% 29.64 in 2.0 mi NNE 10.4 mph - N/A Snow Light Snow
6:58 PM 30.0 °F 21.1 °F 29.8 °F 99% 29.66 in 2.0 mi North 10.4 mph - N/A Snow Light Snow
7:58 PM 29.8 °F 19.3 °F 29.3 °F 98% 29.63 in 2.0 mi North 13.8 mph - N/A Snow Light Snow
8:29 PM 30.2 °F 19.3 °F 30.2 °F 100% 29.59 in 2.0 mi North 15.0 mph - N/A Snow Light Snow
8:49 PM 30.2 °F 17.4 °F 30.2 °F 100% 29.58 in 4.0 mi North 20.7 mph 23.0 mph N/A Snow Light Snow
8:58 PM 30.0 °F 18.3 °F 29.7 °F 99% 29.60 in 4.0 mi North 17.3 mph 26.5 mph N/A Snow Light Snow
9:07 PM 30.2 °F 18.9 °F 30.2 °F 100% 29.56 in 4.0 mi North 16.1 mph - N/A Snow Light Snow
9:51 PM 30.2 °F 21.3 °F 30.2 °F 100% 29.56 in 10.0 mi North 10.4 mph 23.0 mph N/A Snow Light Snow
9:58 PM 30.2 °F 21.3 °F 30.2 °F 100% 29.59 in 10.0 mi North 10.4 mph - N/A Snow Light Snow
10:46 PM 32.0 °F 24.2 °F 26.6 °F 80% 29.57 in 10.0 mi North 9.2 mph - N/A   Overcast
10:58 PM 31.1 °F 23.1 °F 25.2 °F 79% 29.60 in 10.0 mi North 9.2 mph - N/A   Overcast
11:58 PM 30.6 °F 21.2 °F 23.0 °F 74% 29.59 in 10.0 mi NNW 11.5 mph - N/A   Clear